Station NIWS1 - Oyster Landing, North Inlet-Winyah Bay Reserve, SC Image indicating link to RSS feed of recent meteorological observations for station NIWS1


Conditions at NIWS1 as of
(2:45 pm EDT)
1845 GMT on 05/28/2024:
     

Click on the graph icon in the table below to see a time series plot of the last five days of that observation.

5-day plot - Wind Direction Wind Direction (WDIR): S ( 190 deg true )
5-day plot - Wind Speed Wind Speed (WSPD): 4.1 kts
5-day plot - Atmospheric Pressure Atmospheric Pressure (PRES):29.91 in
5-day plot - Air Temperature Air Temperature (ATMP): 87.1 °F
5-day plot - Dew Point Dew Point (DEWP): 70.5 °F
5-day plot - Heat Index Heat Index (HEAT): 92.5 °F
5-day plot -  Wind Speed, Wind Gust and Atmospheric Pressure Combined plot of Wind Speed, Gust, and Air Pressure
Previous observations
TIME
(EDT)
5-day plot - Wind Direction
WDIR
 
5-day plot - Wind Speed
WSPD
kts
5-day plot - Wind Gust
GST
kts
5-day plot - Wave Height
WVHT
ft
5-day plot - Dominant Wave Period
DPD
sec
5-day plot - Average Wave Period
APD
sec
5-day plot - Mean Wave Direction
MWD
 
5-day plot - Atmospheric Pressure
PRES
in
5-day plot - Pressure Tendency
PTDY
in
5-day plot - Air Temperature
ATMP
°F
5-day plot - Water Temperature
WTMP
°F
5-day plot - Dew Point
DEWP
°F
5-day plot - Salinity
SAL
psu
5-day plot - Visibility
VIS
nmi
5-day plot - Tide (above MLLW)
TIDE
ft
2024-05-28 02:30 pmSSW 5.1-----29.91- 87.1- 68.9---
2024-05-28 02:15 pmSSW 6.0-----29.91- 87.1- 69.4---
2024-05-28 02:00 pmWSW 4.1-----29.91-0.03 87.6- 66.0---
2024-05-28 01:45 pm W 4.1-----29.91- 86.9- 67.1---
2024-05-28 01:30 pmWSW 5.1-----29.91- 86.4- 67.6---
2024-05-28 01:15 pm W 4.1-----29.91- 85.8- 68.2---
2024-05-28 01:00 pm SW 4.1-----29.91-0.03 85.5- 70.3---
2024-05-28 12:45 pm W 5.1-----29.94- 84.9- 71.2---
2024-05-28 12:30 pm W 5.1-----29.94- 84.4- 72.1---
2024-05-28 12:15 pmWNW 7.0-----29.94- 83.7- 72.7---
2024-05-28 12:00 pm W 6.0-----29.94+0.00 82.9- 73.2---
2024-05-28 11:45 am W 5.1-----29.94- 82.2- 73.4---
2024-05-28 11:30 am W 6.0-----29.94- 81.7- 73.9---
2024-05-28 11:15 amWNW 5.1-----29.94- 81.1- 73.8---
2024-05-28 11:00 am W 7.0-----29.94+0.00 80.1- 73.2---
2024-05-28 10:45 am W 7.0-----29.94- 79.5- 73.4---
2024-05-28 10:30 am W 6.0-----29.94- 79.0- 73.6---
2024-05-28 10:15 am W 5.1-----29.94- 78.6- 73.6---
2024-05-28 10:00 am W 7.0-----29.94+0.03 77.7- 73.2---
2024-05-28 09:45 am W 8.0-----29.94- 77.0- 72.9---
2024-05-28 09:30 am W 8.0-----29.94- 76.8- 73.0---
2024-05-28 09:15 am W 8.0-----29.94- 76.1- 73.0---
2024-05-28 09:00 am W 8.0-----29.94+0.03 75.4- 72.3---
2024-05-28 08:45 am W 7.0-----29.94- 75.6- 72.5---
2024-05-28 08:30 am W 7.0-----29.94- 75.6- 72.5---
2024-05-28 08:15 amWSW 8.0-----29.94- 75.4- 73.0---
2024-05-28 08:00 am W 7.0-----29.94+0.03 75.2- 73.0---
2024-05-28 07:45 amWSW 6.0-----29.94- 75.4- 73.6---
2024-05-28 07:30 amWSW 5.1-----29.94- 75.2- 73.4---
2024-05-28 07:15 amWSW 5.1-----29.94- 75.0- 73.6---
2024-05-28 07:00 amWSW 4.1-----29.91+0.00 74.8- 73.4---
2024-05-28 06:45 amWSW 1.9-----29.94- 75.0- 73.2---
2024-05-28 06:30 am W 1.9-----29.91- 75.0- 73.2---
2024-05-28 06:15 am SW 4.1-----29.91- 75.2- 73.4---
2024-05-28 06:00 amWSW 5.1-----29.91-0.03 75.2- 73.8---
2024-05-28 05:45 am W 6.0-----29.91- 75.4- 73.9---
2024-05-28 05:30 am W 5.1-----29.88- 75.6- 74.1---
2024-05-28 05:15 am W 4.1-----29.91- 75.9- 74.5---
2024-05-28 05:00 amWSW 5.1-----29.91+0.00 76.5- 75.0---
2024-05-28 04:45 am SW 4.1-----29.91- 76.5- 74.7---
2024-05-28 04:30 amWSW 2.9-----29.91- 76.5- 74.7---
2024-05-28 04:15 am W 2.9-----29.91- 76.5- 74.3---
2024-05-28 04:00 am W 1.9-----29.91+0.00 76.5- 73.9---
2024-05-28 03:45 amWSW 2.9-----29.94- 76.8- 74.1---
2024-05-28 03:30 am SW 4.1-----29.94- 77.4- 74.3---
2024-05-28 03:15 amSSW 5.1-----29.94- 77.5- 74.5---
2024-05-28 03:00 amSSW 5.1-----29.94+0.03 77.0- 73.9---
2024-05-28 02:45 amWSW 6.0-----29.94- 77.0- 73.9---
2024-05-28 02:30 amWSW 4.1-----29.94- 76.6- 72.9---
2024-05-28 02:15 amWSW 6.0-----29.91- 75.6- 70.9---
2024-05-28 02:00 amWSW 8.0-----29.91-0.03 77.4- 73.6---
2024-05-28 01:45 amWSW 6.0-----29.91- 77.2- 73.0---
2024-05-28 01:30 am W 8.0-----29.94- 78.4- 73.8---
2024-05-28 01:15 am SW 9.9-----29.91- 79.0- 74.5---
2024-05-28 01:00 am SW 11.1-----29.91+0.00 79.0- 74.8---
2024-05-28 12:45 am SW 9.9-----29.91- 78.8- 75.4---
2024-05-28 12:30 am SW 8.9-----29.91- 78.6- 75.6---
2024-05-28 12:15 am SW 8.9-----29.91- 78.6- 75.9---
2024-05-28 12:00 am SW 8.0-----29.91+0.03 78.6- 75.9---
2024-05-27 11:45 pm SW 8.0-----29.91- 78.6- 75.9---
2024-05-27 11:30 pm SW 8.9-----29.94- 78.8- 76.1---
2024-05-27 11:15 pm SW 8.0-----29.94- 79.0- 76.3---
2024-05-27 11:00 pm SW 8.0-----29.94+0.06 79.0- 76.3---
2024-05-27 10:45 pm SW 8.0-----29.91- 79.2- 76.5---
2024-05-27 10:30 pm SW 8.9-----29.91- 79.2- 76.5---
2024-05-27 10:15 pmSSW 8.0-----29.91- 79.7- 76.6---
2024-05-27 10:00 pm SW 6.0-----29.91+0.06 79.9- 76.5---
2024-05-27 09:45 pmSSW 7.0-----29.91- 80.1- 76.3---
2024-05-27 09:30 pm SW 7.0-----29.91- 80.4- 76.3---
2024-05-27 09:15 pm SW 7.0-----29.88- 80.2- 76.1---
2024-05-27 09:00 pm SW 7.0-----29.88+0.03 80.4- 75.9---
2024-05-27 08:45 pm SW 8.9-----29.88- 80.6- 75.7---
2024-05-27 08:30 pm SW 8.9-----29.88- 80.8- 75.6---
2024-05-27 08:15 pm SW 8.9-----29.88- 81.1- 75.6---
2024-05-27 08:00 pm SW 9.9-----29.88+0.03 81.3- 75.7---
2024-05-27 07:45 pm SW 8.9-----29.88- 81.7- 75.7---
2024-05-27 07:30 pmSSW 12.0-----29.88- 82.0- 75.4---
2024-05-27 07:15 pmSSW 11.1-----29.85- 82.4- 75.4---
2024-05-27 07:00 pmSSW 12.0-----29.85+0.00 82.8- 75.4---
2024-05-27 06:45 pm SW 13.0-----29.85- 83.3- 75.2---
2024-05-27 06:30 pmSSW 12.0-----29.85- 83.1- 75.0---
2024-05-27 06:15 pm SW 13.0-----29.85- 83.7- 74.7---
2024-05-27 06:00 pm SW 13.0-----29.85+0.00 84.4- 75.0---
2024-05-27 05:45 pm SW 12.0-----29.85- 85.3- 75.0---
2024-05-27 05:30 pmSSW 14.0-----29.85- 84.7- 75.0---
2024-05-27 05:15 pmSSW 15.9-----29.85- 84.6- 74.8---
2024-05-27 05:00 pmSSW 15.0-----29.85+0.00 85.1- 74.1---
2024-05-27 04:45 pmSSW 14.0-----29.85- 85.5- 74.5---
2024-05-27 04:30 pmSSW 14.0-----29.85- 85.6- 74.7---
2024-05-27 04:15 pmSSW 13.0-----29.85- 86.0- 75.0---
2024-05-27 04:00 pmSSW 15.0-----29.85-0.06 85.6- 74.1---